TimeCDT,TemperatureF,Dew PointF,Humidity,Sea Level PressureIn,VisibilityMPH,Wind Direction,Wind SpeedMPH,Gust SpeedMPH,PrecipitationIn,Events,Conditions,WindDirDegrees,DateUTC
12:53 AM,28.9,18.0,64,30.30,10.0,NW,5.8,-,N/A,,Clear,320,2013-04-02 05:53:00
1:53 AM,27.0,18.0,69,30.30,10.0,NNW,4.6,-,N/A,,Clear,330,2013-04-02 06:53:00
2:53 AM,27.0,18.0,69,30.30,9.0,NNW,5.8,-,N/A,,Clear,330,2013-04-02 07:53:00
3:53 AM,25.0,18.0,75,30.31,10.0,NW,3.5,-,N/A,,Clear,310,2013-04-02 08:53:00
4:53 AM,25.0,18.0,75,30.31,10.0,NNW,5.8,-,N/A,,Clear,330,2013-04-02 09:53:00
5:53 AM,24.1,18.0,77,30.31,10.0,NNW,5.8,-,N/A,,Clear,330,2013-04-02 10:53:00
6:53 AM,23.0,17.1,78,30.33,10.0,NW,3.5,-,N/A,,Clear,320,2013-04-02 11:53:00
7:53 AM,27.0,19.9,75,30.35,10.0,NW,4.6,-,N/A,,Clear,320,2013-04-02 12:53:00
8:53 AM,30.9,21.0,67,30.36,10.0,NW,3.5,-,N/A,,Clear,320,2013-04-02 13:53:00
9:53 AM,34.0,18.0,52,30.36,10.0,Variable,3.5,-,N/A,,Clear,0,2013-04-02 14:53:00
10:53 AM,37.9,14.0,38,30.36,10.0,North,6.9,-,N/A,,Clear,350,2013-04-02 15:53:00
11:53 AM,41.0,12.0,31,30.35,10.0,NNW,10.4,-,N/A,,Clear,330,2013-04-02 16:53:00
12:53 PM,43.0,10.9,27,30.33,10.0,NNW,12.7,17.3,N/A,,Clear,330,2013-04-02 17:53:00
1:53 PM,45.0,10.0,24,30.31,10.0,NNW,12.7,19.6,N/A,,Clear,330,2013-04-02 18:53:00
2:53 PM,46.0,12.0,25,30.30,10.0,WNW,6.9,17.3,N/A,,Clear,300,2013-04-02 19:53:00
3:53 PM,46.0,14.0,28,30.29,9.0,NNW,15.0,21.9,N/A,,Clear,340,2013-04-02 20:53:00
4:53 PM,46.9,18.0,32,30.28,10.0,NNW,15.0,21.9,N/A,,Clear,330,2013-04-02 21:53:00
5:53 PM,46.0,18.0,33,30.28,9.0,NW,9.2,-,N/A,,Clear,320,2013-04-02 22:53:00
6:53 PM,44.1,19.0,37,30.30,10.0,NNW,12.7,-,N/A,,Clear,330,2013-04-02 23:53:00
7:53 PM,39.9,19.9,45,30.32,10.0,North,11.5,-,N/A,,Clear,360,2013-04-03 00:53:00
8:53 PM,37.0,19.9,50,30.33,10.0,North,9.2,-,N/A,,Clear,350,2013-04-03 01:53:00
9:53 PM,35.1,19.9,54,30.35,10.0,North,9.2,-,N/A,,Clear,350,2013-04-03 02:53:00
10:53 PM,32.0,19.9,61,30.36,10.0,North,8.1,-,N/A,,Clear,360,2013-04-03 03:53:00
11:53 PM,30.9,19.0,61,30.35,10.0,NNE,10.4,-,N/A,,Clear,20,2013-04-03 04:53:00